Overview Statistics Trail Chart Weather Telemetry Raw packets
 

This is the latest recevied weather packets stored in our database for station/object VA2RBQ-7. If no packets are shown the sender has not sent any weather packets the latest 10 day(s).

<< 23 24 25 26 27 28 29 >>
Time Temp. Humidity Pressure Rain* Wind** Luminosity Snow
1788386312 14.44° C 54% 1023.9 hPa 0 mm - - -
1788386009 13.89° C 54% 1023.8 hPa 0 mm - - -
1788385706 12.78° C 54% 1023.9 hPa 0 mm - - -
1788385404 13.33° C 54% 1024.1 hPa 0 mm - - -
1788385101 15° C 55% 1024.1 hPa 0 mm - - -
1788384799 14.44° C 55% 1024.2 hPa 0 mm - - -
1788384496 15.56° C 55% 1024.2 hPa 0 mm - - -
1788384203 16.67° C 54% 1024.2 hPa 0 mm - - -
1788383891 17.22° C 54% 1024.3 hPa 0 mm - - -
1788383588 16.11° C 54% 1024.3 hPa 0 mm - - -
1788383286 14.44° C 54% 1024.3 hPa 0 mm - - -
1788382983 13.89° C 54% 1024.4 hPa 0 mm - - -
1788382680 13.33° C 54% 1024.6 hPa 0 mm - - -
1788382378 13.89° C 55% 1024.6 hPa 0 mm - - -
1788382075 12.78° C 55% 1024.6 hPa 0 mm - - -
1788381773 12.22° C 55% 1024.7 hPa 0 mm - - -
1788381470 12.78° C 55% 1024.8 hPa 0 mm - - -
1788381167 12.78° C 55% 1024.8 hPa 0 mm - - -
1788380865 13.33° C 55% 1024.9 hPa 0 mm - - -
1788380562 15.56° C 56% 1024.8 hPa 0 mm - - -
1788380260 16.67° C 56% 1025 hPa 0 mm - - -
1788379957 15.56° C 55% 1025 hPa 0 mm - - -
1788379654 13.33° C 55% 1025 hPa 0 mm - - -
1788379352 15° C 56% 1025 hPa 0 mm - - -
1788379049 15.56° C 55% 1025.2 hPa 0 mm - - -

* Rain since midnight (hover to see other rain measurements)
** Current wind speed in m/s (hover to see current wind gust speed)